Weather History for Port Angeles, WA

Change the Weather History Date:

Monday, October 14, 2013

  Actual Average Record
Temperature  
Mean Temperature 47 °F -  
Max Temperature 59 °F 58 °F 71 °F (1961)
Min Temperature 37 °F 42 °F 30 °F (1969)
Degree Days  
Heating Degree Days 18    
Moisture  
Dew Point 41 °F    
Average Humidity 83    
Maximum Humidity 97    
Minimum Humidity 58    
Precipitation  
Precipitation 0.00 in - - ()
Sea Level Pressure  
Sea Level Pressure 30.41 in    
Wind  
Wind Speed 3 mph (SSE)    
Max Wind Speed 9 mph    
Max Gust Speed -    
Visibility 10 miles    
Events      
Averages and records for this station are not official NWS values.
T = Trace of Precipitation, MM = Missing Value Source: NWS Daily Summary

Daily Weather History Graph

Daily Weather History Graph

Search for Another Location

Airport:

Trip Planner

Search our weather history database for the weather conditions in past years. The results will help you decide how hot, cold, wet, or windy it might be!

Date:

Astronomy

Oct. 14, 2013 Rise Set
Actual Time 7:32 AM PDT 6:26 PM PDT
Civil Twilight 7:01 AM PDT 6:57 PM PDT
Nautical Twilight 6:25 AM PDT 7:33 PM PDT
Astronomical Twilight 5:48 AM PDT 8:09 PM PDT
Moon 4:15 PM PDT (10/14) 2:35 AM PDT (10/14)
Length of Visible Light 11h 56m
Length of Day
10h 53m
Waxing Gibbous, 80% of the Moon is Illuminated
Oct 14
Waxing Gibbous
Oct 18
Full
Oct 26
Last Quarter
Nov 3
New
Nov 9
First Quarter

Hourly Weather History & Observations

Time (PDT) Temp. Windchill Dew Point Humidity Pressure Visibility Wind Dir Wind Speed Gust Speed Precip Events Conditions
12:53 AM 39.9 °F - 37.9 °F 93% 30.38 in 10.0 mi Calm Calm - N/A   Clear
1:53 AM 37.9 °F 35.5 °F 37.0 °F 97% 30.39 in 10.0 mi South 3.5 mph - N/A   Clear
2:53 AM 41.0 °F 37.1 °F 37.9 °F 89% 30.39 in 10.0 mi SW 5.8 mph - N/A   Clear
3:53 AM 39.9 °F - 37.0 °F 89% 30.39 in 10.0 mi Calm Calm - N/A   Clear
4:53 AM 39.0 °F 34.8 °F 37.0 °F 93% 30.40 in 10.0 mi SW 5.8 mph - N/A   Clear
5:53 AM 37.0 °F - 36.0 °F 96% 30.41 in 10.0 mi Calm Calm - N/A   Clear
6:53 AM 41.0 °F 36.4 °F 37.9 °F 89% 30.42 in 10.0 mi SW 6.9 mph - N/A   Clear
7:53 AM 41.0 °F 37.1 °F 37.9 °F 89% 30.43 in 10.0 mi SW 5.8 mph - N/A   Clear
8:53 AM 45.0 °F - 42.1 °F 90% 30.43 in 10.0 mi Calm Calm - N/A   Clear
9:53 AM 51.1 °F - 45.0 °F 80% 30.44 in 10.0 mi East 4.6 mph - N/A   Clear
10:53 AM 52.0 °F - 46.0 °F 80% 30.44 in 10.0 mi East 6.9 mph - N/A   Clear
11:53 AM 53.1 °F - 46.0 °F 77% 30.45 in 10.0 mi East 9.2 mph - N/A   Clear
12:53 PM 54.0 °F - 46.0 °F 75% 30.45 in 10.0 mi East 6.9 mph - N/A   Clear
1:53 PM 53.1 °F - 45.0 °F 74% 30.43 in 10.0 mi East 8.1 mph - N/A   Clear
2:53 PM 55.9 °F - 46.9 °F 72% 30.41 in 10.0 mi ESE 6.9 mph - N/A   Clear
3:53 PM 57.9 °F - 43.0 °F 58% 30.40 in 10.0 mi ESE 5.8 mph - N/A   Clear
4:53 PM 57.0 °F - 44.1 °F 62% 30.39 in 10.0 mi ESE 8.1 mph - N/A   Clear
5:53 PM 55.9 °F - 42.1 °F 60% 30.39 in 10.0 mi East 4.6 mph - N/A   Clear
6:53 PM 48.9 °F - 44.1 °F 83% 30.39 in 10.0 mi Calm Calm - N/A   Clear
7:53 PM 46.0 °F - 43.0 °F 89% 30.40 in 10.0 mi Calm Calm - N/A   Clear
8:53 PM 42.1 °F - 39.9 °F 92% 30.39 in 10.0 mi Calm Calm - N/A   Clear
9:53 PM 43.0 °F 41.3 °F 39.0 °F 86% 30.40 in 10.0 mi SW 3.5 mph - N/A   Clear
10:53 PM 41.0 °F 39.0 °F 37.9 °F 89% 30.40 in 10.0 mi SSW 3.5 mph - N/A   Clear
11:53 PM 39.9 °F - 37.9 °F 93% 30.40 in 10.0 mi Calm Calm - N/A   Clear